Temp
61 61 61 60 60 60 60 61 61 61 61 62 62 62 62 62 62 63 65 74 72 72 74 77 77 75 71 67 70 69 55 50 54 59 60 64 66 72 76 74 76 76 75 77 78
61 61 61 61 60 60 60 60 61 61 61 62 62 62 62 62 63 67 76 76 74 74 75 73 71 72 65 65 68 63 52 56 64 65 59 63 68 68 71 72 70 73 76 80 79
61 61 60 60 60 60 60 60 60 61 61 61 62 62 62 61 64 69 78 74 73 74 73 73 72 67 62 63 64 60 58 65 66 69 68 65 65 70 67 62 69 69 72 77 77
60 61 60 60 60 60 59 60 60 61 61 61 61 62 62 63 55 72 77 75 74 74 75 73 69 61 58 57 66 61 67 69 69 71 68 66 71 68 67 68 75 75 76 76 75
59 59 59 59 59 59 59 59 60 60 60 61 62 63 66 62 66 80 77 77 75 75 71 67 64 59 54 61 65 61 64 67 70 68 69 72 68 68 66 74 75 77 77 75 69
58 59 59 59 59 59 59 59 58 59 59 61 63 63 63 57 77 82 80 76 77 70 73 68 63 65 59 59 58 65 64 63 64 63 63 67 65 66 70 73 75 75 73 70 69
58 58 58 59 59 59 59 59 58 59 61 63 64 70 63 65 79 79 77 73 77 79 73 72 70 69 62 61 65 63 58 63 64 65 63 68 61 65 72 73 71 73 71 69 68
58 58 58 58 59 59 59 59 58 60 62 65 66 64 60 78 76 73 77 78 81 79 77 75 75 64 59 62 65 59 55 48 62 65 66 67 53 66 69 70 69 71 70 68 66
57 57 57 58 58 59 59 58 60 62 64 65 61 59 60 78 78 83 79 77 79 79 78 86 71 61 64 54 50 50 45 49 58 64 64 62 55 67 70 69 67 67 66 66 64
57 56 57 57 58 58 57 58 62 65 71 74 74 60 66 71 79 82 81 80 76 74 72 68 60 55 52 48 42 47 47 50 52 59 59 56 56 63 67 67 67 66 64 65 64
57 56 56 56 57 57 54 62 63 61 61 64 66 66 73 79 82 78 82 77 73 66 55 61 53 49 55 56 58 57 52 50 56 63 57 56 56 60 65 64 64 63 62 62 63
56 56 56 56 56 56 52 61 66 67 58 70 72 72 79 79 71 76 80 68 64 56 58 54 50 61 63 62 60 58 51 50 57 62 56 55 56 59 63 63 65 64 63 62 61
55 55 56 55 55 57 61 67 75 68 57 66 71 70 71 74 69 72 76 69 62 55 56 51 58 66 65 61 59 54 51 51 53 56 55 54 53 55 62 63 65 64 66 65 64
55 55 55 55 60 55 62 72 72 66 46 58 66 71 72 72 67 79 78 71 62 57 58 56 63 63 59 60 59 49 60 58 55 49 42 52 37 48 57 61 62 62 61 62 60
55 55 55 55 47 54 68 70 72 65 35 66 67 79 74 68 70 71 76 70 60 60 57 54 57 57 57 59 63 55 60 55 53 45 41 45 38 43 51 53 56 57 61 59 59
55 55 55 54 47 56 65 66 64 47 37 61 69 66 64 67 68 70 69 70 67 58 57 56 64 61 60 63 62 62 54 51 46 42 30 43 43 40 48 54 55 57 58 59 59
54 55 52 57 56 62 63 60 44 36 61 59 61 64 62 61 64 65 61 56 52 45 45 53 56 62 66 56 57 53 42 28 32 30 30 46 42 45 55 59 61 58 57 58 58
53 53 52 61 57 61 59 51 34 51 54 64 61 62 57 62 61 62 56 51 55 53 46 44 43 57 63 59 53 48 45 31 28 26 34 46 40 47 56 57 59 59 58 58 57
52 49 55 63 71 61 53 37 40 50 60 56 58 53 53 59 58 57 55 55 57 56 46 43 46 63 64 63 61 49 43 48 38 36 32 39 46 53 55 56 57 57 58 57 57
44 44 52 67 68 58 47 42 48 58 61 59 48 53 47 52 52 52 52 60 58 61 61 52 43 59 62 63 57 53 55 39 34 30 27 36 41 40 49 51 54 54 55 56 56
43 45 58 69 59 49 39 42 52 62 61 54 51 49 49 46 48 48 52 60 62 60 57 51 44 49 56 50 49 47 44 42 39 35 29 25 36 49 51 53 53 55 57 55 54
39 39 60 58 45 41 39 50 54 57 59 55 53 51 47 47 45 47 49 54 63 63 55 53 42 38 49 55 59 53 48 44 31 33 33 32 34 54 54 54 54 56 57 54 54
34 38 54 54 36 36 44 48 53 51 50 51 49 51 49 44 38 46 48 57 58 54 52 52 39 28 38 44 50 48 51 49 41 36 36 29 36 55 55 52 55 53 54 54 53
35 34 41 43 43 39 37 41 43 52 50 52 49 49 44 43 45 42 45 53 53 54 58 57 41 39 37 43 47 44 50 52 47 31 39 42 45 50 54 54 57 53 51 51 50
35 35 39 32 39 38 39 40 40 41 49 48 44 45 42 35 39 41 45 47 51 53 46 42 39 41 44 50 51 49 50 50 45 47 38 47 46 51 55 57 60 51 52 52 50
34 33 36 33 38 37 38 36 38 41 43 41 40 44 42 34 37 36 42 43 39 44 42 44 36 43 45 50 50 49 50 50 50 51 50 50 50 57 60 56 52 52 52 50 50
38 38 33 33 33 32 33 37 39 42 44 45 43 39 39 42 43 45 46 46 44 39 39 39 37 34 36 48 47 40 47 49 50 53 51 46 52 54 50 51 49 49 50 49 49
MSLP
1018.81 1018.31 1017.79 1017.29 1016.85 1016.46 1016.11 1015.59 1015.12 1014.83 1014.71 1014.49 1014.21 1013.81 1013.26 1012.81 1012.23 1012.43 1011.76 1010.53 1010.39 1010.46 1010.50 1010.20 1009.73 1009.89 1010.11 1010.11 1009.47 1009.78 1011.20 1011.56 1010.48 1009.95 1009.81 1009.18 1008.91 1008.53 1008.58 1008.71 1008.95 1009.54 1010.16 1010.56 1010.39
1018.91 1018.26 1017.73 1017.19 1016.73 1016.31 1015.91 1015.49 1015.12 1014.77 1014.50 1014.22 1013.93 1013.45 1013.09 1012.97 1012.60 1011.69 1010.19 1010.10 1010.19 1010.43 1010.33 1010.38 1010.11 1010.01 1009.99 1009.70 1009.45 1009.85 1011.05 1010.65 1009.86 1009.55 1009.44 1009.02 1008.79 1008.80 1009.05 1009.33 1009.90 1010.20 1010.22 1010.25 1010.30
1019.06 1018.41 1017.79 1017.12 1016.56 1016.13 1015.71 1015.23 1014.83 1014.45 1014.32 1014.04 1013.53 1013.05 1012.80 1012.88 1012.34 1010.52 1009.75 1009.85 1010.08 1010.22 1010.43 1010.52 1010.27 1010.31 1010.00 1009.60 1009.40 1009.60 1010.11 1009.85 1009.61 1009.24 1009.10 1009.14 1009.13 1009.05 1009.19 1009.51 1009.75 1010.22 1010.29 1010.21 1010.43
1019.25 1018.61 1017.95 1017.33 1016.62 1015.93 1015.45 1015.06 1014.61 1014.27 1014.06 1013.95 1013.59 1013.09 1012.66 1012.60 1011.89 1009.92 1009.56 1009.66 1009.94 1010.04 1010.22 1010.05 1009.85 1009.88 1009.97 1009.86 1009.11 1009.27 1009.27 1009.06 1009.33 1009.03 1009.15 1009.18 1009.25 1009.31 1009.35 1009.44 1009.46 1009.68 1009.89 1010.15 1010.81
1019.41 1018.73 1018.04 1017.34 1016.71 1016.08 1015.36 1014.79 1014.42 1014.08 1013.87 1013.78 1013.63 1013.19 1012.47 1012.41 1010.98 1009.25 1009.37 1009.58 1009.95 1010.03 1010.00 1009.93 1010.07 1010.30 1010.03 1009.80 1009.15 1008.89 1008.91 1008.87 1008.90 1009.09 1009.05 1009.16 1009.34 1009.42 1009.31 1009.39 1009.54 1009.56 1009.78 1010.51 1011.68
1019.31 1018.69 1018.07 1017.35 1016.67 1015.99 1015.37 1014.74 1014.21 1013.87 1013.67 1013.59 1013.43 1013.10 1012.72 1011.91 1009.47 1009.07 1009.28 1009.66 1009.61 1009.77 1009.69 1009.79 1010.05 1009.93 1010.29 1009.99 1009.59 1009.24 1009.05 1009.12 1009.03 1009.11 1009.07 1009.33 1009.39 1009.44 1009.26 1009.29 1009.64 1009.73 1010.17 1010.99 1011.77
1019.26 1018.59 1017.92 1017.32 1016.64 1015.86 1015.17 1014.54 1014.00 1013.66 1013.51 1013.38 1013.23 1013.03 1012.49 1010.62 1009.06 1008.88 1009.15 1009.22 1009.07 1009.11 1009.39 1009.54 1009.71 1009.97 1010.42 1010.17 1009.74 1009.59 1009.57 1009.45 1009.20 1008.99 1009.27 1009.37 1009.82 1009.56 1009.07 1009.58 1009.96 1010.13 1010.57 1011.36 1011.81
1019.32 1018.51 1017.77 1017.03 1016.34 1015.71 1014.87 1014.12 1013.56 1013.25 1013.16 1013.19 1013.32 1013.15 1011.89 1009.20 1008.98 1009.27 1009.07 1008.97 1008.92 1008.71 1008.99 1009.08 1009.30 1009.84 1010.35 1010.32 1010.19 1010.31 1010.41 1010.41 1008.99 1008.87 1009.10 1009.43 1009.85 1009.39 1009.05 1009.41 1010.11 1010.21 1010.82 1011.34 1011.88
1019.27 1018.51 1017.67 1016.87 1016.02 1015.20 1014.41 1013.58 1012.91 1012.73 1012.66 1012.94 1013.24 1013.02 1011.30 1008.99 1008.78 1008.53 1008.70 1008.89 1008.77 1008.84 1008.98 1008.99 1009.61 1010.40 1010.67 1011.25 1011.78 1011.53 1011.18 1010.72 1009.80 1008.90 1009.21 1009.80 1010.07 1009.22 1009.07 1009.61 1010.15 1010.45 1010.84 1011.29 1011.71
1019.35 1018.39 1017.50 1016.58 1015.87 1014.93 1013.84 1012.93 1012.42 1012.26 1012.03 1012.39 1012.45 1012.63 1010.47 1008.99 1008.26 1008.25 1008.32 1008.51 1008.91 1009.27 1009.51 1009.82 1010.68 1011.27 1011.80 1012.11 1012.26 1011.71 1011.36 1010.76 1010.13 1009.73 1009.75 1010.08 1010.08 1009.60 1009.28 1009.41 1009.69 1010.18 1010.84 1011.11 1011.43
1019.44 1018.51 1017.47 1016.27 1015.48 1014.75 1013.73 1012.61 1012.82 1012.60 1012.12 1011.55 1011.14 1010.45 1009.12 1008.29 1007.93 1008.08 1008.09 1008.64 1009.11 1009.75 1010.47 1010.61 1011.54 1011.63 1011.29 1011.43 1011.19 1011.00 1010.80 1010.70 1010.29 1009.73 1010.03 1010.23 1010.31 1010.14 1009.61 1009.47 1009.46 1010.06 1010.89 1011.04 1011.19
1019.58 1018.61 1017.55 1016.13 1014.99 1014.52 1014.18 1013.47 1012.16 1011.82 1010.92 1009.83 1009.31 1008.96 1008.38 1008.50 1008.59 1008.41 1008.31 1009.19 1009.71 1010.43 1010.85 1011.51 1011.37 1010.75 1010.55 1010.71 1010.71 1010.53 1010.53 1010.59 1010.22 1009.95 1010.27 1010.29 1010.01 1009.55 1009.36 1009.15 1008.98 1009.45 1010.42 1010.86 1011.23
1019.41 1018.63 1017.65 1016.07 1014.58 1014.12 1013.93 1012.76 1011.43 1011.19 1011.25 1008.37 1007.82 1007.75 1007.67 1008.23 1008.35 1008.08 1008.12 1008.83 1009.69 1010.55 1010.98 1011.41 1010.55 1010.16 1010.14 1009.93 1010.04 1010.14 1010.41 1010.65 1010.78 1010.60 1010.61 1010.74 1009.86 1009.16 1008.45 1008.22 1008.23 1008.65 1009.17 1010.03 1010.45
1019.31 1018.47 1017.72 1016.22 1014.43 1014.94 1013.36 1011.91 1011.31 1011.46 1011.43 1008.89 1007.01 1006.13 1006.53 1007.50 1007.57 1007.17 1007.53 1008.57 1009.59 1010.10 1010.51 1010.59 1009.81 1009.84 1009.70 1009.42 1009.51 1009.90 1010.01 1010.72 1011.28 1011.77 1012.25 1012.03 1011.31 1009.90 1008.97 1008.25 1008.14 1008.23 1008.84 1009.46 1010.62
1019.08 1018.32 1017.73 1017.24 1016.66 1015.38 1012.94 1011.89 1011.35 1011.41 1011.11 1007.88 1006.54 1005.45 1006.08 1007.21 1006.96 1007.21 1007.26 1008.15 1009.33 1010.03 1010.74 1010.59 1009.96 1009.71 1009.48 1008.88 1008.93 1009.72 1010.24 1011.26 1011.99 1012.99 1013.46 1013.19 1013.17 1009.81 1009.13 1008.50 1008.10 1008.03 1008.67 1009.62 1010.32
1018.68 1017.79 1017.53 1016.86 1016.81 1014.16 1012.99 1012.29 1011.83 1012.50 1010.69 1007.99 1006.80 1006.59 1006.99 1007.29 1007.25 1007.68 1007.96 1008.38 1009.19 1010.17 1010.53 1010.38 1009.72 1009.59 1009.01 1008.93 1009.17 1009.95 1011.09 1012.18 1013.24 1014.18 1014.27 1013.30 1013.06 1010.34 1008.97 1007.68 1007.57 1008.23 1008.93 1009.77 1010.48
1018.27 1017.24 1016.79 1016.48 1015.06 1013.29 1013.30 1013.31 1013.67 1012.78 1010.43 1009.28 1008.65 1008.60 1008.11 1007.75 1007.81 1007.75 1008.43 1009.11 1009.69 1010.49 1010.62 1010.04 1009.47 1008.67 1008.45 1008.99 1009.50 1010.54 1012.56 1014.33 1015.15 1015.54 1014.44 1013.11 1012.64 1009.86 1008.13 1007.39 1006.99 1008.07 1009.19 1009.95 1010.40
1018.09 1016.87 1016.27 1015.28 1013.98 1014.09 1014.17 1014.68 1014.67 1012.74 1011.33 1010.08 1010.30 1009.31 1009.18 1008.91 1008.69 1008.94 1008.87 1009.18 1009.53 1009.85 1010.43 1010.34 1009.40 1008.27 1008.01 1008.45 1009.09 1010.63 1012.33 1014.71 1015.61 1015.94 1014.89 1013.18 1011.56 1009.46 1008.70 1007.94 1007.43 1008.42 1009.40 1009.96 1010.55
1018.38 1017.01 1015.93 1014.53 1013.64 1014.01 1015.07 1015.73 1014.65 1013.19 1012.16 1011.83 1010.90 1010.41 1009.92 1009.99 1010.55 1009.86 1009.25 1008.96 1008.46 1009.15 1009.91 1009.72 1008.77 1007.66 1007.48 1007.84 1008.66 1010.41 1011.88 1012.83 1014.84 1015.63 1015.36 1013.49 1011.21 1009.92 1009.21 1008.88 1008.89 1009.26 1009.77 1010.22 1010.56
1020.12 1018.65 1016.59 1014.61 1013.73 1014.34 1015.55 1015.71 1014.65 1013.47 1012.91 1012.63 1012.74 1012.17 1011.59 1011.30 1010.99 1010.72 1009.74 1008.48 1008.29 1008.30 1008.29 1008.47 1008.51 1008.03 1007.66 1007.78 1008.65 1009.43 1010.95 1013.07 1015.03 1015.96 1015.65 1013.67 1011.85 1010.15 1009.71 1009.48 1009.41 1009.58 1009.84 1010.11 1010.40
1020.75 1019.39 1015.76 1014.67 1014.63 1015.52 1016.47 1015.92 1014.75 1013.94 1013.43 1013.35 1013.16 1012.90 1012.91 1013.04 1012.69 1011.67 1010.01 1008.87 1008.45 1008.35 1008.23 1008.75 1009.18 1008.84 1007.97 1008.11 1008.76 1009.95 1010.94 1012.51 1013.93 1015.11 1015.13 1014.41 1011.75 1009.54 1009.24 1009.18 1009.37 1009.61 1009.73 1010.03 1010.57
1022.67 1020.98 1016.15 1016.19 1016.63 1017.01 1017.06 1016.28 1015.39 1014.55 1013.98 1013.87 1013.86 1013.94 1014.09 1014.33 1013.17 1012.61 1010.92 1010.43 1009.60 1008.83 1008.60 1008.93 1009.55 1009.94 1008.87 1007.91 1007.81 1008.58 1009.72 1011.29 1013.45 1014.43 1014.33 1013.55 1011.28 1009.37 1008.91 1009.00 1009.01 1009.14 1009.33 1009.58 1010.42
1023.97 1021.58 1017.47 1017.19 1018.34 1018.76 1018.13 1017.56 1016.80 1015.96 1015.62 1015.03 1015.08 1015.11 1015.09 1015.05 1014.41 1012.97 1012.00 1010.75 1011.11 1010.66 1009.59 1009.08 1009.59 1010.33 1009.89 1009.33 1008.64 1008.66 1009.39 1010.14 1011.42 1012.46 1012.41 1012.67 1010.27 1008.95 1008.73 1008.78 1008.64 1009.03 1009.25 1009.89 1010.45
1024.63 1022.90 1020.33 1019.39 1019.73 1019.95 1019.81 1018.50 1017.53 1016.94 1016.25 1015.93 1015.89 1015.50 1015.57 1015.16 1015.17 1013.61 1012.91 1011.73 1011.69 1011.57 1010.31 1009.22 1009.63 1009.67 1009.31 1008.69 1008.42 1008.44 1008.33 1008.86 1010.04 1011.35 1010.66 1009.59 1009.45 1008.89 1008.37 1008.21 1008.14 1008.58 1009.46 1009.98 1010.69
1025.06 1023.84 1022.70 1022.13 1021.39 1021.34 1020.89 1019.67 1018.54 1017.97 1017.05 1016.82 1016.01 1016.29 1016.42 1015.85 1015.05 1014.44 1013.54 1012.71 1012.36 1012.21 1011.65 1011.61 1010.29 1009.54 1008.51 1008.01 1008.04 1007.67 1007.72 1008.15 1008.78 1008.64 1008.94 1008.29 1007.91 1008.13 1007.83 1007.64 1007.67 1008.70 1009.41 1010.06 1010.61
1025.51 1024.93 1024.23 1023.50 1022.69 1021.95 1021.21 1020.10 1019.01 1018.33 1018.08 1017.13 1017.21 1016.71 1016.78 1016.64 1016.27 1014.86 1014.27 1013.99 1013.57 1013.11 1013.05 1013.17 1011.89 1010.05 1008.51 1007.93 1007.30 1007.22 1007.15 1007.29 1007.14 1007.25 1007.05 1007.27 1006.17 1006.72 1006.61 1007.21 1008.01 1008.74 1009.45 1010.08 1010.39
1025.49 1025.21 1025.02 1023.50 1022.69 1022.18 1021.45 1020.44 1019.23 1018.85 1017.90 1017.69 1017.63 1017.13 1016.62 1016.26 1015.95 1015.21 1014.24 1013.80 1013.61 1013.72 1014.08 1013.89 1013.76 1012.07 1009.39 1008.14 1007.59 1007.21 1005.89 1005.65 1005.89 1005.77 1005.79 1005.90 1005.90 1006.27 1006.86 1007.37 1008.16 1008.91 1009.37 1009.87 1010.22
Wind_Speed
23 22 19 18 17 16 16 16 16 15 12 10 8 9 10 11 14 3 4 7 4 1 3 6 3 3 3 3 3 4 6 1 1 4 2 3 5 3 2 4 6 5 7 6 2
23 22 21 19 17 16 16 16 16 15 12 10 9 9 10 10 2 4 7 6 7 1 4 5 6 8 1 3 3 6 4 6 4 6 2 2 5 2 3 4 4 5 4 6 6
23 23 22 21 19 16 16 16 16 16 12 11 11 11 11 6 4 4 7 8 3 4 1 2 4 2 4 2 3 4 5 5 2 6 4 2 3 1 3 0 4 7 5 6 7
24 24 23 21 20 18 17 16 16 16 14 11 11 12 13 1 2 3 7 7 1 1 3 5 5 2 1 2 5 5 5 5 6 5 4 3 4 2 2 5 10 10 8 6 6
24 24 23 21 20 18 17 16 16 15 14 10 10 11 3 4 8 5 6 5 2 2 2 1 4 3 1 4 4 4 0 1 5 8 8 8 5 5 5 5 7 9 8 8 11
22 22 22 21 20 20 18 16 14 13 12 10 9 10 2 3 5 8 8 2 4 2 3 3 1 3 1 3 2 3 3 1 3 3 2 7 3 4 5 6 7 9 8 9 12
24 23 23 22 21 21 20 18 14 11 8 9 9 4 1 13 4 8 8 5 4 3 3 2 3 7 3 7 4 2 4 5 5 4 5 6 3 7 8 7 9 9 8 10 10
24 25 24 24 22 21 22 20 17 11 4 2 4 2 7 7 4 3 5 4 6 3 2 2 5 2 1 2 9 4 5 2 9 6 5 9 8 8 7 11 10 10 11 11 7
25 26 26 25 25 24 23 24 16 9 6 4 1 2 10 9 5 8 6 4 2 3 4 2 4 2 5 4 6 5 3 6 9 5 6 6 7 9 9 9 9 7 10 11 8
27 27 27 27 26 25 26 15 5 5 2 4 2 5 6 6 3 3 5 3 3 3 6 3 4 1 4 5 6 5 4 3 2 1 3 4 6 7 8 7 9 9 9 11 10
27 28 29 30 28 24 13 5 6 5 1 8 9 7 7 3 2 4 4 4 2 4 3 4 3 8 12 9 6 4 1 2 4 5 2 7 7 10 10 6 6 7 9 10 10
28 28 29 31 31 26 3 2 6 3 10 15 18 17 17 1 4 6 6 5 4 6 1 5 7 14 9 7 8 4 2 4 6 3 2 5 11 10 9 8 9 11 13 12 8
27 26 28 32 33 2 4 5 11 4 4 10 9 9 11 9 10 9 10 6 5 3 6 7 9 5 7 7 6 4 4 4 7 3 3 5 11 6 6 4 6 7 17 14 17
28 28 27 33 5 7 7 8 11 3 5 10 4 6 8 4 6 10 8 8 4 5 5 7 7 5 6 7 6 4 4 1 4 5 4 5 9 6 8 14 8 9 14 15 10
30 28 24 16 4 4 8 12 13 6 3 5 1 6 9 9 4 5 3 5 6 4 3 9 11 6 6 6 7 7 6 4 2 1 2 3 2 10 5 7 10 8 12 9 9
33 29 26 1 2 10 10 13 5 7 6 5 3 2 7 8 2 3 4 5 3 3 4 9 6 4 5 1 1 4 5 7 5 4 3 6 9 7 4 6 3 5 8 11 9
35 32 17 3 5 4 7 6 7 3 6 2 9 9 8 3 6 7 8 6 7 2 4 4 5 5 6 5 0 6 7 5 5 3 7 3 4 11 11 8 10 14 13 10 8
37 30 5 5 8 4 5 7 3 4 6 7 11 8 3 5 6 6 1 5 6 4 3 4 8 5 4 10 12 7 10 8 8 4 4 6 7 6 6 5 14 13 9 7 8
30 6 6 5 10 4 7 3 7 4 4 12 16 6 3 11 3 5 6 10 11 14 11 7 9 8 2 4 11 5 5 9 4 1 1 5 5 4 2 6 7 8 8 8 7
6 5 5 11 13 6 5 6 5 7 13 14 7 6 12 15 9 6 4 5 5 8 13 9 11 5 4 5 1 6 6 5 3 3 5 6 6 7 5 4 4 6 8 9 7
4 6 5 16 5 6 4 6 5 12 10 5 13 12 6 7 9 7 8 13 11 4 6 4 6 6 7 7 10 2 2 4 5 6 6 2 7 5 8 9 9 8 9 9 8
4 4 7 6 5 1 1 4 10 14 8 7 4 6 5 11 7 8 9 6 16 8 6 6 6 5 12 4 9 8 10 8 7 5 5 5 8 5 9 8 6 8 6 3 7
4 5 6 6 2 4 7 9 6 9 9 6 4 5 3 3 8 3 9 10 14 10 6 5 2 2 9 7 3 5 6 7 4 4 10 6 7 2 6 5 8 7 6 7 7
3 5 6 5 1 3 6 5 5 10 9 6 9 6 4 8 5 8 15 11 16 15 20 12 7 11 14 9 5 5 7 14 12 6 9 17 10 6 9 10 12 1 8 8 7
1 5 0 5 7 11 10 6 14 11 6 7 7 8 9 9 13 13 6 13 11 9 12 8 8 9 9 10 8 7 6 7 11 14 11 11 17 13 17 18 20 8 7 8 7
1 4 6 4 8 8 4 5 18 16 15 14 11 12 10 7 8 15 8 4 5 6 7 6 8 8 18 14 12 16 7 9 14 11 12 13 22 8 14 5 7 8 8 7 5
3 4 0 5 4 5 6 14 17 15 9 14 15 12 12 12 8 17 15 12 9 6 4 3 4 7 13 15 12 10 22 19 14 16 10 16 12 5 4 8 8 8 8 7 6
Wind_Direction
4 4 359 350 346 342 338 332 331 330 330 325 320 314 313 321 310 152 267 220 210 343 315 302 311 322 117 266 225 99 60 247 244 91 153 283 97 358 21 79 43 88 120 174 147
2 359 359 353 347 342 337 332 329 327 328 326 321 317 312 329 310 255 232 212 234 75 11 8 320 1 315 238 301 96 109 220 196 150 125 54 86 135 74 105 65 94 86 114 82
1 1 359 354 349 343 337 333 329 328 330 329 326 319 314 319 340 251 207 227 216 137 197 270 256 229 205 75 253 154 177 185 208 133 120 67 67 357 121 28 184 154 135 88 73
357 357 357 352 349 342 336 332 328 326 329 330 320 313 313 192 240 247 211 236 121 105 347 327 349 342 254 265 251 157 198 163 187 152 117 136 148 336 143 243 168 155 149 123 92
356 353 351 349 345 340 334 328 325 323 324 325 316 321 16 6 253 238 214 249 258 167 230 41 44 24 12 313 333 148 168 195 173 164 169 136 171 203 271 152 188 139 113 111 97
349 349 347 345 342 339 333 325 319 317 321 322 320 310 35 292 239 187 204 273 251 331 345 64 16 242 296 305 86 316 146 270 268 198 210 146 224 133 250 135 153 127 149 115 129
347 346 344 342 339 335 328 323 311 305 319 324 327 326 336 241 232 210 175 207 227 194 4 1 105 58 331 331 325 339 359 352 259 227 209 130 299 221 238 184 169 170 128 128 131
348 345 343 339 337 334 326 319 306 288 281 328 338 311 253 254 211 194 203 278 272 241 221 106 48 39 158 299 358 7 53 37 277 168 230 119 250 253 274 153 185 190 147 139 148
347 344 340 338 335 332 324 314 295 276 251 215 112 173 270 308 209 212 178 229 296 244 288 174 70 214 358 72 7 349 229 205 308 223 136 154 235 242 182 175 212 203 157 143 139
346 342 339 335 334 330 322 298 301 331 263 167 240 24 281 243 216 185 202 167 98 357 5 136 58 9 17 87 212 214 223 221 253 46 117 217 250 275 244 199 205 189 171 156 155
344 341 338 333 331 331 337 16 17 7 314 197 200 216 287 213 92 175 177 112 84 47 219 285 113 224 232 207 212 237 196 259 250 263 222 213 248 255 262 251 227 183 184 171 165
344 340 337 331 327 327 118 61 219 195 293 224 230 224 248 156 299 253 120 144 154 231 322 344 233 241 236 215 199 191 217 260 292 229 167 288 281 239 214 218 206 196 182 177 166
340 340 337 328 321 335 262 243 307 350 300 291 217 221 206 158 230 227 141 166 180 221 253 201 249 239 217 209 198 219 193 221 229 319 354 336 287 272 269 231 226 211 188 178 170
339 338 338 333 28 325 295 294 339 241 37 283 242 264 148 154 275 195 172 148 201 208 258 249 283 279 267 220 168 227 219 94 44 48 232 80 283 273 279 282 252 225 175 167 164
335 334 336 328 276 320 265 328 320 56 356 266 269 182 143 154 177 6 109 71 172 229 76 253 311 350 332 224 173 225 115 111 114 54 349 190 300 273 263 273 250 200 163 154 153
331 330 335 44 240 243 311 304 42 47 261 328 43 229 118 201 187 112 83 61 139 175 203 235 264 233 233 50 93 125 65 35 49 100 309 225 176 273 215 215 207 139 140 141 149
329 327 326 228 246 335 337 29 37 154 316 101 26 350 323 237 191 155 169 171 177 140 261 293 228 241 173 203 148 84 64 349 332 354 231 273 169 241 304 302 176 157 142 154 132
329 322 220 227 260 358 29 51 191 263 282 358 358 323 216 338 334 336 254 198 264 177 172 194 311 185 179 188 195 178 148 156 225 215 269 300 247 277 331 32 90 108 135 127 135
327 335 325 293 339 123 71 77 210 239 350 353 336 331 355 338 320 311 229 230 200 185 184 191 247 233 172 180 157 184 158 177 99 299 28 247 296 320 324 65 90 121 134 169 165
330 333 275 332 350 62 80 219 244 322 324 326 318 291 308 319 309 319 290 283 275 185 211 229 260 214 168 99 62 141 168 81 3 212 248 278 256 229 196 181 160 171 189 210 196
20 356 267 2 36 52 180 230 298 291 294 314 293 286 314 5 330 301 256 294 278 226 154 159 160 276 128 181 169 142 176 90 126 147 178 244 268 225 196 179 182 205 219 202 183
357 347 294 19 26 9 230 320 333 316 341 0 353 2 25 336 292 297 281 271 330 286 230 186 156 216 216 226 180 179 181 148 136 232 221 164 260 260 180 186 180 234 268 224 154
334 259 306 71 323 341 315 339 302 12 351 350 308 18 334 290 313 318 304 335 335 340 296 203 209 46 329 339 320 198 185 173 126 99 211 176 252 176 175 239 251 240 231 147 141
355 329 322 23 40 28 2 292 333 334 309 346 286 296 353 305 231 285 306 306 347 328 316 239 185 174 225 225 184 200 198 202 187 180 214 229 240 257 265 270 289 293 142 145 150
61 266 190 299 331 331 316 289 296 304 249 1 308 326 312 294 304 285 268 311 304 335 342 24 226 192 212 191 212 200 197 205 202 225 198 225 231 222 240 251 257 151 152 144 167
307 1 353 289 280 260 246 256 284 297 295 293 290 319 312 276 260 297 312 282 249 334 352 9 302 261 236 222 210 243 247 239 242 241 260 248 260 231 245 245 148 156 156 162 177
317 335 144 242 255 296 255 269 279 301 284 307 307 297 294 289 303 290 268 252 228 197 285 304 294 332 255 233 227 241 235 242 252 252 231 243 245 178 134 134 155 168 169 174 186